Regional Weather Roundup
Issued by NWS

Home | Current Version | Previous Version | Text Only | Print | Product List | Glossary On
Versions: 1 2 3 4 5 6 7 8 9 10 11 12 13 14 15 16 17 18 19 20 21 22 23 24 25 26 27 28 29 30 31 32 33 34 35 36 37 38 39 40 41 42 43 44 45 46 47 48 49 50
000
ASUS43 KLMK 281910
RWRKY
KENTUCKY REGIONAL WEATHER ROUNDUP
NATIONAL WEATHER SERVICE LOUISVILLE KY
300 PM EDT FRI AUG 28 2015

NOTE "FAIR" INDICATES FEW OR NO CLOUDS BELOW 12,000 FEET
WITH NO SIGNIFICANT WEATHER AND/OR OBSTRUCTIONS TO VISIBILITY.

KYZ001>023-026-027-061>063-070>075-282000-
WESTERN AND SOUTH CENTRAL KENTUCKY

CITY           SKY/WX    TMP DP  RH WIND       PRES   REMARKS
PADUCAH        SUNNY     84  61  45 SE7       30.08F
HENDERSON      MOSUNNY   79  57  47 SE5       30.09F
OWENSBORO      MOSUNNY   83  61  47 S8        30.11F
HOPKINSVILLE   DRIZZLE   85  65  50 VRB2      30.08F
BOWLING GREEN  MOSUNNY   85  64  49 MISG      30.11F
GLASGOW        MOSUNNY   84  63  48 W6        30.12F
$$

KYZ024-025-028>034-038-045-046-053-282000-
NORTH CENTRAL KENTUCKY

CITY           SKY/WX    TMP DP  RH WIND       PRES   REMARKS
LOUISVILLE/SDF PTSUNNY   82  56  40 CALM      30.13F
LOUISVILLE/LOU MOSUNNY   82  57  42 S7        30.14F
FORT KNOX      MOSUNNY   80  61  50 VRB2      30.12F
$$

KYZ035>037-039>044-047>052-055>060-089>105-282000-
NORTHEAST KENTUCKY

CITY           SKY/WX    TMP DP  RH WIND       PRES   REMARKS
LEXINGTON      MOSUNNY   83  58  42 VRB5      30.16S
COVINGTON      SUNNY     80  55  42 E9        30.16F
FRANKFORT      SUNNY     81  58  45 CALM      30.14F
$$

KYZ054-064>069-076>088-106>120-282000-
SOUTHEAST KENTUCKY

CITY           SKY/WX    TMP DP  RH WIND       PRES   REMARKS
JACKSON        MOSUNNY   80  62  54 NW5       30.18F
LONDON         SUNNY     83  58  42 W7        30.16F
SOMERSET       MOSUNNY   79  61  53 W8        30.16S
MIDDLESBORO    SUNNY     83  62  48 SW5       30.16F
MONTICELLO     PTCLDY    85  67  54 CALM      30.17F
$$




USA.gov is the U.S. government's official web portal to all federal, state and local government web resources and services.